ATLAS CENTAUR 2 1 00694U 63047A 26120.71520214 .00003754 00000+0 44653-3 0 9995 2 00694 30.3544 264.8435 0546459 178.8967 181.2949 14.12332420138986 THOR AGENA D R/B 1 00733U 64002A 26120.64252150 .00000172 00000+0 78303-4 0 9995 2 00733 99.1182 136.8057 0033938 106.8640 253.6270 14.34045023245749 SL-3 R/B 1 00877U 64053B 26120.56434528 .00000179 00000+0 58848-4 0 9991 2 00877 65.0762 179.1450 0081198 275.9654 83.2196 14.61401816274376 SL-8 R/B 1 02802U 67045B 26120.82199732 .00000332 00000+0 99553-4 0 9998 2 02802 74.0109 250.7198 0065097 245.9406 113.4932 14.45658566 96552 SL-8 R/B 1 03230U 68040B 26120.67962576 .00002227 00000+0 16502-3 0 9994 2 03230 74.0318 207.4288 0024331 10.5107 349.6585 15.03586063 97824 OAO 2 1 03597U 68110A 26120.93715629 .00000238 00000+0 69247-4 0 9997 2 03597 34.9948 333.5039 0006292 257.9990 101.9996 14.47334172 26671 ISIS 1 1 03669U 69009A 26120.49033797 .00000136 00000+0 94550-4 0 9997 2 03669 88.4439 149.6421 1706813 344.6304 10.8459 11.30425397354384 SERT 2 1 04327U 70009A 26120.83292991 -.00000007 00000+0 47567-4 0 9996 2 04327 99.2822 61.0929 0005514 39.7980 20.4666 13.58735997786976 SL-3 R/B 1 05118U 71028B 26120.94589306 .00052996 00000+0 52113-3 0 9993 2 05118 81.2355 347.2723 0016124 94.6937 265.6160 15.65623410996835 ASTEX 1 1 05560U 71089A 26120.68943847 .00000358 00000+0 91188-4 0 9997 2 05560 92.7040 168.5518 0013189 268.4542 91.5153 14.50815920869841 SL-8 R/B 1 05730U 71119B 26120.96101890 .00012776 00000+0 66024-3 0 9992 2 05730 73.8860 77.9382 0545111 33.5413 329.9028 14.38788031663002 OAO 3 (COPERNICUS) 1 06153U 72065A 26120.99532028 .00000331 00000+0 72116-4 0 9991 2 06153 35.0073 359.2972 0007241 232.1613 254.8359 14.60034981853844 ATLAS CENTAUR R/B 1 06155U 72065B 26120.78468229 .00001366 00000+0 18881-3 0 9998 2 06155 35.0030 0.4201 0032700 88.7518 271.6929 14.77823723848972 SL-8 R/B 1 08459U 75112B 26120.88067480 .00000149 00000+0 57692-4 0 9990 2 08459 74.0597 282.9010 0015635 357.3802 2.7268 14.38227338639374 SL-3 R/B 1 10114U 77057B 26120.94467546 .00013833 00000+0 27668-3 0 9998 2 10114 97.5815 295.2414 0008454 95.8415 264.3798 15.46867123676409 SEASAT 1 1 10967U 78064A 26120.92785144 .00000350 00000+0 13608-3 0 9997 2 10967 108.0093 235.1027 0002758 257.7470 102.3367 14.46204521514067 SL-14 R/B 1 11267U 79011B 26120.89381592 .00000561 00000+0 52840-4 0 9995 2 11267 82.5261 47.0280 0014567 240.5527 119.4240 14.91972069536566 SL-8 R/B 1 11574U 79089B 26120.97257295 .00000219 00000+0 73962-4 0 9990 2 11574 74.0705 354.2630 0015453 156.5059 203.6807 14.42381606443647 SL-14 R/B 1 11672U 80005B 26120.80701084 .00000579 00000+0 55932-4 0 9997 2 11672 82.5132 257.7812 0015457 355.2134 4.8935 14.90987288484255 SL-8 R/B 1 12139U 81003B 26120.81645256 .00016654 00000+0 41555-3 0 9990 2 12139 82.9382 241.7376 0254701 357.5023 2.4913 15.12979436322557 SL-3 R/B 1 12465U 81046B 26120.93566484 .00013772 00000+0 30726-3 0 9993 2 12465 81.2323 226.9411 0018690 194.9649 165.1044 15.43238190446483 SL-3 R/B 1 12904U 81103B 26120.91828638 .00004248 00000+0 18505-3 0 9994 2 12904 81.1569 152.1484 0014427 109.6756 250.6034 15.21894159981176 SL-3 R/B 1 13068U 82013B 26120.97238020 .00004899 00000+0 20933-3 0 9993 2 13068 81.1713 99.4587 0022169 7.4561 352.6996 15.22445083412300 SL-3 R/B 1 13154U 82039B 26120.93282075 .00001855 00000+0 11064-3 0 9996 2 13154 81.1461 155.6911 0028902 146.4431 213.8633 15.10319484389528 SL-3 R/B 1 13403U 82079B 26120.95732017 .00005556 00000+0 21751-3 0 9991 2 13403 81.1433 131.3336 0023768 352.5961 7.4918 15.25368260385665 SL-14 R/B 1 13553U 82092B 26120.87287163 .00000490 00000+0 52059-4 0 9998 2 13553 82.5657 92.5705 0021636 125.4212 298.1088 14.86709977336685 SL-3 R/B 1 13819U 83010B 26120.95280033 .00016514 00000+0 31500-3 0 9993 2 13819 81.1002 298.0817 0015418 222.6503 137.3547 15.47887973366026 SL-3 R/B 1 14208U 83075B 26120.96170484 .00013015 00000+0 32991-3 0 9994 2 14208 97.6118 127.5673 0022348 46.9402 313.3709 15.39585829338199 COSMOS 1536 1 14699U 84013A 26120.84682531 .00007882 00000+0 31797-3 0 9997 2 14699 82.5460 55.9671 0016310 97.8262 262.4827 15.24521787280568 SL-14 R/B 1 14820U 84027B 26120.67677681 .00000426 00000+0 45797-4 0 9992 2 14820 82.5441 196.2661 0018607 156.8870 203.3188 14.86026272255352 SL-8 R/B 1 15483U 85006B 26120.58303736 .00000240 00000+0 88060-4 0 9997 2 15483 74.0447 165.6633 0017224 65.6751 95.5484 14.37814123161484 SL-12 R/B(2) 1 15772U 85042D 26120.96812771 .00000028 00000+0 34117-4 0 9992 2 15772 71.1090 337.2808 0033665 41.7619 56.8937 14.21996347121822 SL-14 R/B 1 15945U 85069B 26120.64560181 .00000411 00000+0 43587-4 0 9990 2 15945 82.5269 336.0869 0019408 24.6255 335.5884 14.86480838180554 SL-16 R/B 1 16182U 85097B 26120.96034162 -.00000064 00000+0 -80302-5 0 9998 2 16182 71.0048 30.5058 0007781 193.7993 242.2635 14.16605145 94634 SL-14 R/B 1 16496U 86006B 26120.67634633 .00000692 00000+0 70269-4 0 9999 2 16496 82.5292 210.8145 0077959 100.2411 260.7609 14.86898018156930 COSMOS 1743 1 16719U 86034A 26120.82843001 .00050369 00000+0 55029-3 0 9998 2 16719 82.5327 18.9267 0007246 92.9176 267.2912 15.63099266188383 SL-14 R/B 1 16792U 86046B 26120.73715917 .00000461 00000+0 50176-4 0 9993 2 16792 82.4848 31.0064 0024452 58.0095 302.3493 14.85638673134136 SL-14 R/B 1 16882U 86055B 26120.86507366 .00000465 00000+0 50681-4 0 9999 2 16882 82.5195 77.6158 0019479 155.1363 263.1559 14.85687237127119 AJISAI (EGS) 1 16908U 86061A 26120.93739373 -.00000091 00000+0 43060-4 0 9997 2 16908 50.0095 292.6884 0011438 60.8467 108.8741 12.44516083474505 SL-14 R/B 1 17567U 87024B 26120.88631215 .00000466 00000+0 50068-4 0 9990 2 17567 82.5305 43.7023 0019830 87.9953 272.3534 14.86179854 95881 COSMOS 1833 1 17589U 87027A 26120.96186014 -.00000151 00000+0 -54881-4 0 9998 2 17589 70.9160 216.1407 0022372 133.1350 227.1647 14.13032403 17703 SL-16 R/B 1 17590U 87027B 26120.57178332 .00000000 00000+0 23688-4 0 9993 2 17590 71.0020 167.1670 0003912 15.9013 344.2233 14.17172707 22693 SL-14 R/B 1 17912U 87038B 26120.84063505 .00000446 00000+0 48871-4 0 9993 2 17912 82.5011 247.6654 0019040 356.8873 3.2222 14.85414578 86975 COSMOS 1844 1 17973U 87041A 26120.87018117 -.00000257 00000+0 -10774-3 0 9998 2 17973 70.8979 284.1124 0032821 301.7252 58.0671 14.14558223 10965 SL-14 R/B 1 18153U 87055B 26120.94311790 .00000472 00000+0 51536-4 0 9994 2 18153 82.4966 299.7728 0020157 196.8404 163.2146 14.85673593 77699 COSMOS 1867 1 18187U 87060A 26120.55784363 -.00000026 00000+0 27857-4 0 9999 2 18187 65.0093 161.4470 0015531 281.1770 78.7569 14.31510323 27367 SL-14 R/B 1 18749U 88001B 26120.60524340 .00000410 00000+0 44392-4 0 9991 2 18749 82.5118 146.5401 0019532 68.7840 291.5460 14.85573845 49730 COSMOS 1933 1 18958U 88020A 26120.72585683 .00003118 00000+0 15005-3 0 9990 2 18958 82.5154 199.4200 0004619 39.1815 320.9753 15.18426325 58122 SL-3 R/B 1 19046U 88032B 26120.93038265 .00005350 00000+0 24605-3 0 9990 2 19046 97.5235 104.0406 0027227 54.4834 305.8935 15.20442224 60045 SL-16 R/B 1 19120U 88039B 26120.84068958 -.00000059 00000+0 -48903-5 0 9994 2 19120 71.0147 318.2752 0024046 260.7805 99.0600 14.19624750965785 COSMOS 1953 1 19210U 88050A 26120.98353339 .00009260 00000+0 32441-3 0 9991 2 19210 82.5046 105.6052 0008927 305.4685 54.5721 15.29296370 45777 SL-8 R/B 1 19257U 88053B 26120.87134116 .00000211 00000+0 76705-4 0 9992 2 19257 74.0497 16.2785 0020401 186.8690 246.0676 14.38944240984103 COSMOS 1975 1 19573U 88093A 26120.90392285 .00008882 00000+0 31640-3 0 9994 2 19573 82.5198 65.2316 0011062 357.4382 2.6799 15.28725335 27389 SL-14 R/B 1 19574U 88093B 26120.72470211 .00000385 00000+0 41480-4 0 9995 2 19574 82.5326 353.2090 0019551 222.9640 200.1964 14.85706680 8748 SL-16 R/B 1 19650U 88102B 26120.89207559 .00000219 00000+0 13460-3 0 9994 2 19650 71.0012 41.6544 0016260 288.1817 71.7536 14.16158571934282 INTERCOSMOS 24 1 20261U 89080A 26120.83350437 .00000466 00000+0 13145-3 0 9992 2 20261 82.6050 70.4468 1187610 171.7394 190.5347 12.59605290673362 SL-14 R/B 1 20262U 89080C 26120.56383253 .00000394 00000+0 10953-3 0 9999 2 20262 82.5901 139.8951 1230945 66.2461 306.2748 12.50532320666634 DELTA 1 R/B 1 20323U 89089B 26120.97244733 .00000273 00000+0 76358-4 0 9998 2 20323 97.0660 320.0787 0067940 318.3492 41.2543 14.50700306903314 ARIANE 40 R/B 1 20443U 90005H 26120.72275948 .00000258 00000+0 95375-4 0 9999 2 20443 98.2991 179.8073 0011038 53.6143 306.6062 14.39901894900294 DELTA 2 R/B(1) 1 20453U 90008B 26120.61575665 .00065747 00000+0 61802-3 0 9991 2 20453 35.6012 192.3110 0072496 26.0900 334.3465 15.62562572934246 COSMOS 2058 1 20465U 90010A 26120.68059206 .00003016 00000+0 17515-3 0 9995 2 20465 82.4684 356.2019 0010366 144.4643 215.7280 15.11726845950097 SL-14 R/B 1 20466U 90010B 26120.68746250 .00000444 00000+0 50725-4 0 9991 2 20466 82.5043 218.5462 0021083 126.1853 234.1317 14.83616231936194 SL-14 R/B 1 20511U 90018B 26120.62009789 .00000341 00000+0 39848-4 0 9992 2 20511 82.5225 174.5676 0014719 281.9719 77.9846 14.82187501930279 HST 1 20580U 90037B 26120.93332367 .00007708 00000+0 24837-3 0 9999 2 20580 28.4760 43.3958 0001811 346.7350 13.3198 15.30220469781323 SL-16 R/B 1 20625U 90046B 26120.65559457 .00000304 00000+0 18128-3 0 9990 2 20625 70.9989 188.7736 0015871 230.5244 129.4475 14.15017640855741 COSMOS 2084 1 20663U 90055A 26120.52015206 .00001898 00000+0 14361-3 0 9991 2 20663 62.7887 158.7600 0008983 213.7696 146.2834 15.05922660944120 SL-6 R/B(2) 1 20666U 90055D 26120.97361728 .00002558 00000+0 19759-3 0 9996 2 20666 62.7829 76.0150 0033202 357.7954 2.2994 15.03825532946059 SL-8 R/B 1 20775U 90078B 26120.69518634 .00025410 00000+0 73946-3 0 9991 2 20775 82.9060 204.4915 0355783 198.3171 160.4970 14.90604255817047 SL-8 R/B 1 21088U 91006B 26120.98865346 .00000172 00000+0 15769-3 0 9995 2 21088 82.9395 131.1499 0021047 247.2687 141.6557 13.77506041771272 OKEAN-3 1 21397U 91039A 26120.93939190 .00003960 00000+0 27596-3 0 9997 2 21397 82.5140 286.1948 0014716 148.5392 211.6719 15.05091928872894 COSMOS 2151 1 21422U 91042A 26120.90847759 .00001875 00000+0 14735-3 0 9990 2 21422 82.4990 33.2986 0010765 239.7890 120.2269 15.00311722871025 SL-14 R/B 1 21423U 91042B 26120.61670783 .00000344 00000+0 40464-4 0 9999 2 21423 82.4938 171.5052 0018502 72.4377 287.8857 14.81873093860761 ERS-1 1 21574U 91050A 26120.89930865 .00000328 00000+0 11927-3 0 9998 2 21574 98.7829 140.4367 0032793 48.9740 311.4274 14.39486976823243 ARIANE 40 R/B 1 21610U 91050F 26120.75684306 .00000290 00000+0 99231-4 0 9993 2 21610 98.1915 171.0124 0001761 277.0265 83.0725 14.42928276826506 INTERCOSMOS 25 1 21819U 91086A 26120.82185532 .00000994 00000+0 19238-3 0 9997 2 21819 82.5998 278.4743 1485626 4.5709 356.7329 12.12137222503002 SL-8 R/B 1 21876U 92008B 26120.72414245 .00000061 00000+0 47397-4 0 9993 2 21876 82.9284 229.0719 0034248 351.6069 117.4116 13.75971172716570 SL-8 R/B 1 21938U 92020B 26120.98305231 -.00000030 00000+0 -47077-4 0 9991 2 21938 82.9270 114.9210 0029699 149.3865 228.8668 13.75548010708326 USA 81 1 21949U 92023A 26120.98193135 .00000186 00000+0 61447-4 0 9991 2 21949 85.0041 101.2526 0001484 108.9013 251.2341 14.32384288102274 COSMOS 2219 1 22219U 92076A 26120.86717045 .00000291 00000+0 17705-3 0 9993 2 22219 71.0604 268.9908 0016508 124.0420 236.2272 14.14099865725758 SL-16 R/B 1 22220U 92076B 26120.87066925 .00000099 00000+0 73200-4 0 9999 2 22220 70.9992 78.4538 0012369 5.4040 61.0451 14.16865510729221 COSMOS 2221 1 22236U 92080A 26120.79816200 .00001838 00000+0 15965-3 0 9996 2 22236 82.5051 229.1567 0014604 23.4308 336.7576 14.96407440788587 SL-16 R/B 1 22285U 92093B 26120.82320916 .00000171 00000+0 11196-3 0 9993 2 22285 71.0218 254.8198 0006100 241.6980 118.3528 14.15460729720538 COSMOS 2228 1 22286U 92094A 26120.91305055 .00001870 00000+0 15793-3 0 9996 2 22286 82.5197 187.3157 0019309 124.0758 236.2301 14.97429625783874 SL-16 R/B 1 22566U 93016B 26120.93958027 -.00000176 00000+0 -65650-4 0 9995 2 22566 71.0038 105.4424 0012432 248.0811 111.8990 14.15307651709567 COSMOS 2242 1 22626U 93024A 26120.71765414 .00001867 00000+0 16055-3 0 9993 2 22626 82.5208 216.9468 0017528 127.7889 232.4924 14.96763182788170 SL-16 R/B 1 22803U 93059B 26120.84802350 .00000235 00000+0 13995-3 0 9991 2 22803 70.9900 261.1315 0015612 136.1900 224.0466 14.17241107686929 ARIANE 40 R/B 1 22830U 93061H 26120.72185778 .00000201 00000+0 89473-4 0 9997 2 22830 98.4838 188.5599 0011763 127.1387 233.0874 14.32886809701553 COSMOS 2278 1 23087U 94023A 26120.93314120 .00000010 00000+0 29719-4 0 9994 2 23087 71.0547 65.7915 0010834 301.2353 58.7708 14.14389074652191 SL-16 R/B 1 23088U 94023B 26120.95608016 .00000223 00000+0 13969-3 0 9992 2 23088 70.9997 321.1238 0004926 235.9676 124.0980 14.15016458653488 SL-16 R/B 1 23343U 94074B 26120.67920215 .00000444 00000+0 66069-4 0 9994 2 23343 97.7030 149.3722 0007813 59.3424 55.0461 14.79461077694935 SL-16 R/B 1 23405U 94077B 26120.77596029 -.00000156 00000+0 -55063-4 0 9993 2 23405 70.9834 242.9052 0000304 43.4825 316.6322 14.15572578623609 ARIANE 40+ R/B 1 23561U 95021B 26120.73905810 .00000262 00000+0 97460-4 0 9997 2 23561 98.4425 191.4953 0006403 356.8790 114.4023 14.39806382626737 SL-16 R/B 1 23705U 95058B 26120.85614074 -.00000263 00000+0 -11038-3 0 9998 2 23705 71.0212 70.7303 0011183 30.4550 329.7221 14.15503391575233 SL-16 R/B 1 24298U 96051B 26120.93603256 .00000095 00000+0 78317-4 0 9994 2 24298 70.7615 64.6523 0012526 56.7561 303.4757 14.12429475529021 ORBVIEW 2 (SEASTAR) 1 24883U 97037A 26120.97257712 .00000245 00000+0 10145-3 0 9996 2 24883 98.8646 286.6931 0001126 258.4358 101.6701 14.35528374515973 SL-16 R/B 1 25400U 98043G 26120.86276661 .00000042 00000+0 36575-4 0 9993 2 25400 98.8334 74.6244 0009093 218.7274 141.3254 14.26060761446420 SL-16 R/B 1 25407U 98045B 26120.98272897 .00000037 00000+0 43048-4 0 9999 2 25407 71.0108 71.6005 0009331 297.2057 62.8115 14.16196488434501 ISS (ZARYA) 1 25544U 98067A 26120.65152929 .00006769 00000+0 13072-3 0 9993 2 25544 51.6314 175.3907 0007169 8.3355 351.7751 15.49036282564386 CZ-4B R/B 1 25732U 99025C 26120.74005043 .00000069 00000+0 54262-4 0 9995 2 25732 98.6526 163.7628 0036888 193.4912 278.9765 14.18275058395543 OKEAN-O 1 25860U 99039A 26120.69747509 .00000601 00000+0 85539-4 0 9999 2 25860 97.9349 180.0334 0001646 111.4862 248.6526 14.80408978442083 SL-16 R/B 1 25861U 99039B 26120.69611208 .00000538 00000+0 74861-4 0 9991 2 25861 97.9871 179.6873 0016183 89.1401 271.1666 14.81795969444569 DELTA 2 R/B 1 25876U 99041E 26120.96576094 .00000413 00000+0 10601-3 0 9996 2 25876 51.7606 92.4360 0502356 142.5880 221.1160 14.11937633370414 HELIOS 1B 1 25977U 99064A 26120.70155051 .00001588 00000+0 17992-3 0 9995 2 25977 98.1650 24.4636 0000446 121.4908 238.6351 14.87876906692994 TERRA 1 25994U 99068A 26120.90931712 .00000408 00000+0 92066-4 0 9992 2 25994 97.9496 172.3214 0002956 46.3934 58.4513 14.61064612402706 SL-16 R/B 1 26070U 00006B 26120.94110053 .00000209 00000+0 13052-3 0 9999 2 26070 71.0041 347.9703 0014433 103.9810 256.2919 14.15833614355957 TITAN 4B R/B 1 26474U 00047B 26120.90022370 .00003058 00000+0 19241-3 0 9993 2 26474 67.9884 253.6450 0042903 336.0349 23.8802 15.09945341400792 ENVISAT 1 27386U 02009A 26120.90067258 .00000093 00000+0 44039-4 0 9990 2 27386 98.3805 73.2830 0001130 87.9654 341.0750 14.39053257266685 IDEFIX & ARIANE 42P R/B 1 27422U 02021B 26120.86523253 .00000252 00000+0 11226-3 0 9990 2 27422 98.5926 58.8676 0012613 38.2510 321.9566 14.31058521251482 AQUA 1 27424U 02022A 26120.96776154 .00000887 00000+0 18653-3 0 9999 2 27424 98.4250 89.3191 0002098 90.6306 311.4871 14.62083303276373 CZ-4B R/B 1 27432U 02024C 26120.99171581 .00000048 00000+0 47651-4 0 9996 2 27432 98.8737 174.1084 0049291 233.6866 191.9958 14.14556471236636 MIDORI II (ADEOS-II) 1 27597U 02056A 26120.88652594 .00000303 00000+0 13701-3 0 9991 2 27597 98.7847 79.7546 0001052 139.4896 220.6364 14.29322083217750 H-2A R/B 1 27601U 02056E 26120.90827517 .00000346 00000+0 13568-3 0 9997 2 27601 98.3282 79.3153 0070424 7.1027 59.1480 14.33797205221599 CZ-4B R/B 1 28059U 03049C 26120.85256996 .00000418 00000+0 10715-3 0 9990 2 28059 98.6897 117.8183 0049281 72.9501 287.7085 14.55064563194189 CZ-2C R/B 1 28222U 04012C 26120.69229802 .00076665 00000+0 60404-3 0 9998 2 28222 97.7130 191.1464 0013043 119.8960 240.3599 15.71101835212421 SL-16 R/B 1 28353U 04021B 26120.50136321 -.00000210 00000+0 -84360-4 0 9999 2 28353 70.9979 123.7642 0006921 304.4609 55.5859 14.14602823130162 CZ-4B R/B 1 28415U 04035C 26120.65868999 .00007679 00000+0 26366-3 0 9997 2 28415 97.3411 154.2848 0032751 141.7701 218.5871 15.29890523187853 CZ-2C R/B 1 28480U 04046B 26120.72286950 .00000173 00000+0 79392-4 0 9990 2 28480 98.1969 32.4632 0139501 1.5448 358.6138 14.27012436115929 ARIANE 5 R/B 1 28499U 04049H 26120.70705939 .00001144 00000+0 13189-3 0 9994 2 28499 98.2692 291.1365 0084014 181.6442 178.4508 14.85365267153515 CZ-2D R/B 1 28738U 05024B 26120.96580920 .00057502 00000+0 58730-3 0 9993 2 28738 97.3526 138.2067 0005455 157.7816 202.3681 15.64867652147940 ALOS (DAICHI) 1 28931U 06002A 26120.85127744 .00001213 00000+0 21088-3 0 9998 2 28931 98.1294 76.5797 0002012 99.3442 260.7992 14.69951272 81140 H-2A R/B 1 28932U 06002B 26120.85057373 .00009199 00000+0 44713-3 0 9990 2 28932 98.2504 272.4369 0052201 64.8692 295.7942 15.17471880102342 RESURS-DK 1 1 29228U 06021A 26120.96653897 .00002657 00000+0 15616-3 0 9997 2 29228 69.9317 101.7678 0003758 334.3851 25.7129 15.13014597 95433 CZ-4B R/B 1 29507U 06046C 26120.71326655 .00004588 00000+0 22955-3 0 9995 2 29507 97.5496 165.4706 0034574 87.6825 272.8366 15.17398405 67935 CZ-2C R/B 1 31114U 07010B 26120.92948423 .00000116 00000+0 72029-4 0 9991 2 31114 98.4042 231.6051 0059816 141.5126 219.0340 14.20264017987130 COSMO-SKYMED 1 1 31598U 07023A 26120.94434888 .00003691 00000+0 32699-3 0 9997 2 31598 97.8867 312.4074 0001787 96.5590 263.5835 14.96873337 22727 COSMOS 2428 1 31792U 07029A 26120.92301284 -.00000210 00000+0 -87124-4 0 9990 2 31792 70.9394 93.7052 0008823 218.0634 141.9865 14.12943954971471 SL-16 R/B 1 31793U 07029B 26120.95298955 .00000301 00000+0 18068-3 0 9993 2 31793 70.9763 62.5197 0002531 268.1682 154.8391 14.14848204972769 KORONAS-FOTON 1 33504U 09003A 26120.73998368 .00013792 00000+0 29414-3 0 9995 2 33504 82.4319 221.7086 0009401 332.4404 27.6345 15.44710219953776 CZ-2C R/B 1 37731U 11030B 26120.89578336 .00001034 00000+0 13614-3 0 9991 2 37731 97.8623 77.1507 0052338 178.8545 246.3433 14.81366519797826 H-2A R/B 1 38341U 12025E 26120.92262482 .00002968 00000+0 26903-3 0 9992 2 38341 98.4794 92.1929 0045176 140.5061 219.9465 14.95464951756028 SHIJIAN-16 (SJ-16) 1 39358U 13057A 26120.98340182 .00001091 00000+0 10891-3 0 9992 2 39358 74.9705 86.0750 0016403 340.0352 20.0192 14.92485974679301 SL-4 R/B 1 39679U 14021B 26120.92937416 .00014893 00000+0 31556-3 0 9991 2 39679 51.6056 82.0862 0092411 294.1091 65.0249 15.40831853664323 ALOS-2 1 39766U 14029A 26120.93143844 .00000933 00000+0 13173-3 0 9996 2 39766 97.9211 218.7711 0001683 84.7918 275.3486 14.79477106644593 YAOGAN-29 1 41038U 15069A 26120.94949740 -.00000139 00000+0 -10389-4 0 9993 2 41038 98.0067 149.5009 0002000 132.1342 228.0041 14.83043393563621 ASTRO-H (HITOMI) 1 41337U 16012A 26120.98183825 .00003244 00000+0 18739-3 0 9996 2 41337 31.0008 19.0062 0009404 138.8404 221.2945 15.10307331560140 HXMT (HUIYAN) 1 42758U 17034A 26120.96401985 .00005272 00000+0 26246-3 0 9992 2 42758 43.0137 85.9011 0032191 207.8415 152.0711 15.18038749490481 SAOCOM 1A 1 43641U 18076A 26120.94617231 .00000892 00000+0 11861-3 0 9992 2 43641 97.8894 308.3797 0001572 89.8527 270.2867 14.82159672409107 H-2A R/B 1 43682U 18084L 26120.69619066 .00019211 00000+0 42776-3 0 9990 2 43682 98.8650 349.2712 0023700 199.4336 160.6006 15.43397443413792 SAOCOM 1B 1 46265U 20059A 26120.97744041 .00000165 00000+0 27344-4 0 9991 2 46265 97.8888 307.5041 0001594 79.9325 280.2068 14.82151500306492 CSS (TIANHE) 1 48274U 21035A 26120.82613599 .00030202 00000+0 32450-3 0 9993 2 48274 41.4674 250.3255 0005972 306.5504 53.4785 15.63079491285766 COSMOS 2550 1 48865U 21056A 26120.94421306 -.00000113 00000+0 23854-5 0 9997 2 48865 67.1427 242.8126 0008308 269.9496 90.0707 15.33829001271475 CZ-2C R/B 1 52794U 22058K 26120.78013295 .00046818 00000+0 59047-3 0 9994 2 52794 50.1880 49.5323 0037947 64.2966 296.1917 15.58199152218248 CZ-2C R/B 1 54039U 22132E 26120.95378743 .00050315 00000+0 47708-3 0 9990 2 54039 97.2925 126.0524 0013185 248.1399 111.8459 15.66670461198549 GSLV R/B 1 54149U 22138AN 26120.59527832 .00002012 00000+0 17164-3 0 9997 2 54149 87.3804 148.9677 0019761 329.1218 30.8850 14.97046676191697 XRISM 1 57800U 23137A 26120.93176746 .00006099 00000+0 34020-3 0 9995 2 57800 31.0022 305.6053 0007698 207.6207 152.4024 15.12059056145705 ACS3 1 59588U 24077B 26120.29536801 .00001978 00000+0 15568-2 0 9991 2 59588 97.1803 49.8162 0056211 342.8799 17.0468 13.91839775101373 HTV-X1 1 66174U 25241A 26120.54126812 .00013323 00000+0 14860-3 0 9991 2 66174 51.6348 181.3189 0007265 9.1352 350.9773 15.63134601 28895 SZ-21 MODULE 1 66515U 25246C 26120.70473288 .00041293 00000+0 29967-3 0 9996 2 66515 41.4740 242.1774 0003465 357.2858 2.7966 15.72596176 26252